Hourly Data Report for October 13, 2017

All times are specified in Local Standard Time (LST). Add 1 hour to adjust for Daylight Saving Time where and when it is observed.

OTTAWA INTL A
ONTARIO

45°19'00.000" N
75°40'00.000" W
114.90 m
6106001
71628
YOW

Download Data

Hourly Data (October 2017)
Hourly Data Report for October 13, 2017
Temp Definition
°C
Dew Point Temp Definition
°C
Rel Hum Definition
%
Wind Dir Definition
10's deg

Wind Spd Definition
km/h
Visibility Definition
km
Stn Press Definition
kPa
Hmdx Definition


Wind Chill Definition


Weather Definition


TIME
00:00 Legend Double Dagger 6.7 3.1 78 8 15 24.1 101.49     LegendNANA
01:00 Legend Double Dagger 5.5 3.0 84 7 10 24.1 101.50     Clear
02:00 Legend Double Dagger 5.5 3.3 86 13 8 24.1 101.46     LegendNANA
03:00 Legend Double Dagger 5.4 3.5 87 9 10 24.1 101.42     LegendNANA
04:00 Legend Double Dagger 5.0 3.4 89 9 11 24.1 101.40     Clear
05:00 Legend Double Dagger 3.8 2.8 93 5 9 24.1 101.42     LegendNANA
06:00 Legend Double Dagger 4.3 3.0 92 9 8 24.1 101.40     LegendNANA
07:00 Legend Double Dagger 6.1 4.3 88 11 11 24.1 101.37     Mostly Cloudy
08:00 Legend Double Dagger 9.0 3.7 69 13 20 24.1 101.33     LegendNANA
09:00 Legend Double Dagger 11.0 4.2 63 15 16 24.1 101.30     LegendNANA
10:00 Legend Double Dagger 12.9 3.2 51 14 18 24.1 101.23     Mostly Cloudy
11:00 Legend Double Dagger 15.4 3.6 45 18 21 24.1 101.17     LegendNANA
12:00 Legend Double Dagger 15.1 4.2 48 17 17 24.1 101.08     LegendNANA
13:00 Legend Double Dagger 14.9 5.1 52 17 14 24.1 101.01     Mostly Cloudy
14:00 Legend Double Dagger 14.7 7.0 60 19 14 24.1 100.99     LegendNANA
15:00 Legend Double Dagger 14.7 7.5 62 19 19 24.1 100.93     LegendNANA
16:00 Legend Double Dagger 14.6 8.3 66 20 13 24.1 100.90     Cloudy
17:00 Legend Double Dagger 14.5 8.3 66 20 13 24.1 100.89     LegendNANA
18:00 Legend Double Dagger 14.2 8.6 69 19 8 24.1 100.91     LegendNANA
19:00 Legend Double Dagger 13.9 8.9 71 17 6 24.1 100.88     Cloudy
20:00 Legend Double Dagger 13.9 9.0 72 18 10 24.1 100.84     LegendNANA
21:00 Legend Double Dagger 14.0 9.7 75 19 8 24.1 100.85     LegendNANA
22:00 Legend Double Dagger 14.4 11.2 81 19 15 24.1 100.83     Rain
23:00 Legend Double Dagger 15.2 11.5 79 19 16 24.1 100.78     LegendNANA

Notes on Data Quality.

Legend

  • E = Estimated
  • M = Missing
  • NA = Not Available
  • ‡ = Partner data that is not subject to review by the National Climate Archives
Date modified: